Station 41064 - Onslow Bay Outer, NC (LEJ3) Image indicating link to RSS feed of recent meteorological observations for station 41064


Conditions at 41064 as of
(8:08 pm EDT on 05/17/2024)
0008 GMT on 05/18/2024:
     

Click on the graph icon in the table below to see a time series plot of the last five days of that observation.

5-day plot - Wind Direction Wind Direction (WDIR): E ( 90 deg true )
5-day plot - Wind Speed Wind Speed (WSPD): 13.6 kts
5-day plot - Wind Gust Wind Gust (GST): 17.5 kts
5-day plot - Atmospheric Pressure Atmospheric Pressure (PRES):29.93 in
5-day plot - Air Temperature Air Temperature (ATMP): 70.5 °F
5-day plot - Water Temperature Water Temperature (WTMP): 72.1 °F
5-day plot - Salinity Salinity (SAL): 34.99 psu
5-day plot - Dew Point Dew Point (DEWP): 68.2 °F
5-day plot - Wind Speed at 10 Meters Wind Speed at 10 meters (WSPD10M): 15.5 kts
5-day plot - Wind Speed at 20 Meters Wind Speed at 20 meters (WSPD20M): 15.5 kts
5-day plot -  Wind Speed, Wind Gust and Atmospheric Pressure Combined plot of Wind Speed, Gust, and Air Pressure
Previous observations
TIME
(EDT)
5-day plot - Wind Direction
WDIR
 
5-day plot - Wind Speed
WSPD
kts
5-day plot - Wind Gust
GST
kts
5-day plot - Wave Height
WVHT
ft
5-day plot - Dominant Wave Period
DPD
sec
5-day plot - Average Wave Period
APD
sec
5-day plot - Mean Wave Direction
MWD
 
5-day plot - Atmospheric Pressure
PRES
in
5-day plot - Pressure Tendency
PTDY
in
5-day plot - Air Temperature
ATMP
°F
5-day plot - Water Temperature
WTMP
°F
5-day plot - Dew Point
DEWP
°F
5-day plot - Salinity
SAL
psu
5-day plot - Visibility
VIS
nmi
5-day plot - Tide (above MLLW)
TIDE
ft
2024-05-17 07:08 pm E 13.6 17.5----29.93- 70.2 72.3 67.8 34.99--
2024-05-17 06:08 pm E 11.7 17.5----29.92- 70.2 72.3 68.0 34.97--
2024-05-17 05:08 pm E 13.6 17.5----29.92- 69.6 72.5 67.3 34.96--
2024-05-17 04:08 pm E 11.7 21.4----29.93- 69.1 72.5 66.7 34.94--
2024-05-17 03:08 pm E 11.7 15.5----29.95- 69.1 72.5 66.7 34.94--
2024-05-17 02:08 pm E 11.7 15.5----29.96- 69.1 72.5 66.7 34.93--
2024-05-17 01:08 pm E 9.7 13.6----29.96- 69.4 72.5 67.1 34.92--
2024-05-17 12:08 pm E 9.7 13.6----29.96- 69.6 72.5 67.3 34.87--
2024-05-17 11:08 am E 9.7 11.7----29.95- 70.7 72.3 68.2 34.89--
2024-05-17 10:08 am E 7.8 9.7----29.94- 71.1 72.1 69.3 34.90--
2024-05-17 09:08 amNNE 5.8 7.8----29.93- 71.8 72.0 69.1 34.91--
2024-05-17 08:08 amNNE 5.8 9.7----29.91- 71.2 71.8 69.1 34.92--
2024-05-17 07:08 am N 9.7 13.6----29.88- 71.6 71.8 69.4 34.92--
2024-05-17 06:08 am NW 7.8 9.7----29.86- 71.4 72.0 69.6 34.92--
2024-05-17 05:08 amWNW 7.8 11.7----29.84- 71.4 72.0 70.0 34.92--
2024-05-17 04:08 am W 9.7 13.6----29.85- 71.6 72.0 70.3 34.92--
2024-05-17 03:08 am W 11.7 17.5----29.86- 72.0 72.1 70.9 34.92--
2024-05-17 02:08 amWSW 15.5 19.4----29.86- 72.3 72.1 70.5 34.92--
2024-05-17 01:08 amWSW 11.7 15.5----29.82- 72.1 72.3 70.3 34.91--
2024-05-17 12:08 am SW 13.6 17.5----29.84- 72.3 72.1 69.8 34.91--
2024-05-16 11:08 pm SW 9.7 13.6----29.85- 72.5 72.1 69.6 34.92--
2024-05-16 10:08 pm SW 9.7 11.7----29.84- 72.5 72.5 69.8 34.92--
2024-05-16 09:08 pm SW 9.7 13.6----29.85- 72.9 72.7 69.4 34.94--

Ocean Conditions at 41064 as of
(8:08 pm EDT on 05/17/2024)
0008 GMT on 05/18/2024:

These oceanographic data are displayed in rounded times.

     

Click on the graph icon in the table below to see a time series plot of the last five days of that observation.

Depth (DEPTH): 0.0 ft
5-day plot - Ocean Temperature Ocean Temperature (OTMP):72.19 °F
5-day plot - Salinity Salinity (SAL):34.99 psu
Previous observations
TIME
(EDT)
DEPTH
ft
5-day plot - Ocean Temperature
OTMP
°F
5-day plot - Conductivity
COND
mS/cm
5-day plot - Salinity
SAL
psu
5-day plot - Oxygen Concentration
O2%
%
5-day plot - Oxygen Concentration
O2PPM
ppm
5-day plot - Chlorophyll
CLCON
ug/l
5-day plot - Turbidity
TURB
FTU
5-day plot - pH
PH
 
5-day plot - Eh
EH
mv
2024-05-17 07:08 pm 3.372.27-34.99------
2024-05-17 06:08 pm 0.072.32-34.97------
2024-05-17 05:08 pm 0.072.41-34.96------
2024-05-17 04:08 pm 3.372.41-34.94------
2024-05-17 03:08 pm 0.072.48-34.94------
2024-05-17 02:08 pm 0.072.46-34.93------
2024-05-17 01:08 pm 0.072.45-34.92------
2024-05-17 12:08 pm 3.372.46-34.87------
2024-05-17 11:08 am 3.372.30-34.89------
2024-05-17 10:08 am 0.072.12-34.90------
2024-05-17 09:08 am 3.371.91-34.91------
2024-05-17 08:08 am 0.071.83-34.92------
2024-05-17 07:08 am 0.071.85-34.92------
2024-05-17 06:08 am 0.071.87-34.92------
2024-05-17 05:08 am 0.071.92-34.92------
2024-05-17 04:08 am 0.072.01-34.92------
2024-05-17 03:08 am 0.072.12-34.92------
2024-05-17 02:08 am 3.372.19-34.92------
2024-05-17 01:08 am 0.072.23-34.91------
2024-05-17 12:08 am 0.072.21-34.91------
2024-05-16 11:08 pm 0.072.21-34.92------
2024-05-16 10:08 pm 0.072.41-34.92------
2024-05-16 09:08 pm 0.072.70-34.94------